User: anonymous   Login
Location: Home
(42.5358°N, 72.7383°W)
Time: 00:58:19
(UTC-05:00)
Language:

YUBILEINY - Orbit

View from above orbital plane
View from above orbital plane
View from above satellite
View from above satellite

Ground track
Ground track

The orbit data is extracted from the following two-line orbital elements,

1 32953U 08025A   22027.85585667  .00000021  00000-0  80971-4 0  9992
2 32953  82.5019 271.3617 0018744 206.3059 153.7066 12.43106994620864
Epoch (UTC): 27 January 2022 20:32:26
Eccentricity: 0.0018744
inclination: 82.5019°
perigee height: 1479 km
apogee height: 1508 km
right ascension of ascending node: 271.3617°
argument of perigee: 206.3059°
revolutions per day: 12.43106994
mean anomaly at epoch: 153.7066°
orbit number at epoch: 62086

The dashed part of the orbit path shows where the satellite is in the earth's shadow,  

DLR